TimePDT,TemperatureF,Dew PointF,Humidity,Sea Level PressureIn,VisibilityMPH,Wind Direction,Wind SpeedMPH,Gust SpeedMPH,PrecipitationIn,Events,Conditions,WindDirDegrees,DateUTC
12:15 AM,42.8,17.6,36,30.26,10.0,SW,3.5,-,N/A,,Clear,230,2012-10-06 07:15:00
12:35 AM,41.0,17.6,39,30.26,10.0,WSW,3.5,-,N/A,,Clear,240,2012-10-06 07:35:00
12:55 AM,41.0,17.6,39,30.26,10.0,Calm,Calm,-,N/A,,Clear,0,2012-10-06 07:55:00
1:15 AM,35.6,12.2,38,30.26,10.0,East,5.8,-,N/A,,Clear,90,2012-10-06 08:15:00
1:35 AM,35.6,12.2,38,30.27,10.0,ESE,11.5,-,N/A,,Clear,110,2012-10-06 08:35:00
1:55 AM,33.8,12.2,41,30.27,10.0,East,8.1,-,N/A,,Clear,80,2012-10-06 08:55:00
2:35 AM,33.8,12.2,41,30.27,10.0,ESE,10.4,-,N/A,,Clear,120,2012-10-06 09:35:00
2:55 AM,33.8,12.2,41,30.27,10.0,East,10.4,-,N/A,,Clear,90,2012-10-06 09:55:00
3:15 AM,32.0,12.2,44,30.27,10.0,SE,10.4,-,N/A,,Clear,130,2012-10-06 10:15:00
3:35 AM,33.8,12.2,41,30.26,10.0,East,5.8,-,N/A,,Clear,90,2012-10-06 10:35:00
3:55 AM,33.8,14.0,44,30.27,10.0,ESE,9.2,-,N/A,,Clear,120,2012-10-06 10:55:00
4:15 AM,32.0,14.0,48,30.27,10.0,ESE,8.1,-,N/A,,Clear,120,2012-10-06 11:15:00
4:35 AM,33.8,14.0,44,30.27,10.0,ESE,11.5,-,N/A,,Clear,110,2012-10-06 11:35:00
4:55 AM,32.0,14.0,48,30.27,10.0,ESE,3.5,-,N/A,,Clear,110,2012-10-06 11:55:00
5:15 AM,32.0,14.0,48,30.27,10.0,ESE,3.5,-,N/A,,Clear,110,2012-10-06 12:15:00
5:35 AM,30.2,14.0,51,30.27,10.0,East,6.9,-,N/A,,Clear,100,2012-10-06 12:35:00
5:55 AM,32.0,14.0,48,30.28,10.0,ESE,9.2,-,N/A,,Clear,120,2012-10-06 12:55:00
6:15 AM,32.0,14.0,48,30.28,10.0,ESE,9.2,-,N/A,,Clear,120,2012-10-06 13:15:00
6:35 AM,32.0,14.0,48,30.28,10.0,ESE,6.9,-,N/A,,Clear,120,2012-10-06 13:35:00
6:55 AM,30.2,14.0,51,30.29,10.0,ESE,8.1,-,N/A,,Clear,110,2012-10-06 13:55:00
7:15 AM,32.0,14.0,48,30.28,10.0,ESE,9.2,-,N/A,,Clear,120,2012-10-06 14:15:00
7:35 AM,32.0,14.0,48,30.28,10.0,ESE,4.6,-,N/A,,Clear,120,2012-10-06 14:35:00
7:55 AM,32.0,14.0,48,30.28,10.0,SE,10.4,-,N/A,,Clear,130,2012-10-06 14:55:00
8:15 AM,33.8,15.8,48,30.28,10.0,ESE,4.6,-,N/A,,Clear,120,2012-10-06 15:15:00
8:35 AM,33.8,14.0,44,30.29,10.0,SE,10.4,-,N/A,,Clear,130,2012-10-06 15:35:00
8:55 AM,35.6,15.8,44,30.29,10.0,ESE,8.1,-,N/A,,Clear,110,2012-10-06 15:55:00
9:15 AM,37.4,15.8,41,30.28,10.0,SE,8.1,-,N/A,,Clear,140,2012-10-06 16:15:00
9:35 AM,41.0,15.8,36,30.28,10.0,ESE,4.6,-,N/A,,Clear,110,2012-10-06 16:35:00
9:55 AM,41.0,17.6,39,30.29,10.0,East,4.6,-,N/A,,Clear,100,2012-10-06 16:55:00
10:15 AM,44.6,19.4,37,30.28,10.0,Calm,Calm,-,N/A,,Clear,0,2012-10-06 17:15:00
10:35 AM,46.4,19.4,34,30.27,10.0,WNW,3.5,-,N/A,,Clear,290,2012-10-06 17:35:00
10:55 AM,46.4,19.4,34,30.27,10.0,WNW,3.5,-,N/A,,Clear,300,2012-10-06 17:55:00
11:15 AM,50.0,19.4,30,30.26,10.0,Calm,Calm,-,N/A,,Clear,0,2012-10-06 18:15:00
11:35 AM,51.8,19.4,28,30.25,10.0,NW,3.5,-,N/A,,Clear,320,2012-10-06 18:35:00
11:55 AM,51.8,19.4,28,30.25,10.0,Calm,Calm,-,N/A,,Clear,0,2012-10-06 18:55:00
12:15 PM,53.6,19.4,26,30.24,10.0,WNW,3.5,-,N/A,,Clear,290,2012-10-06 19:15:00
12:35 PM,55.4,17.6,23,30.23,10.0,East,3.5,-,N/A,,Clear,80,2012-10-06 19:35:00
12:55 PM,57.2,17.6,21,30.23,10.0,Calm,Calm,-,N/A,,Clear,0,2012-10-06 19:55:00
1:15 PM,59.0,14.0,17,30.21,10.0,Calm,Calm,-,N/A,,Clear,0,2012-10-06 20:15:00
1:35 PM,59.0,14.0,17,30.21,10.0,Calm,Calm,-,N/A,,Clear,0,2012-10-06 20:35:00
1:55 PM,60.8,12.2,15,30.20,10.0,NNW,3.5,-,N/A,,Clear,330,2012-10-06 20:55:00
2:15 PM,60.8,12.2,15,30.19,10.0,Calm,Calm,-,N/A,,Clear,0,2012-10-06 21:15:00
2:35 PM,62.6,10.4,13,30.19,10.0,NW,4.6,-,N/A,,Clear,320,2012-10-06 21:35:00
2:55 PM,62.6,10.4,13,30.18,10.0,NW,4.6,-,N/A,,Clear,320,2012-10-06 21:55:00
3:15 PM,62.6,10.4,13,30.18,10.0,WNW,5.8,-,N/A,,Clear,290,2012-10-06 22:15:00
3:35 PM,64.4,10.4,12,30.17,10.0,West,4.6,-,N/A,,Clear,280,2012-10-06 22:35:00
3:55 PM,64.4,6.8,10,30.16,10.0,WNW,4.6,-,N/A,,Clear,300,2012-10-06 22:55:00
4:15 PM,64.4,3.2,9,30.15,10.0,West,3.5,-,N/A,,Clear,270,2012-10-06 23:15:00
4:35 PM,64.4,3.2,9,30.15,10.0,WNW,4.6,-,N/A,,Clear,300,2012-10-06 23:35:00
4:55 PM,64.4,5.0,10,30.15,10.0,WNW,3.5,-,N/A,,Clear,300,2012-10-06 23:55:00
5:15 PM,62.6,5.0,10,30.14,10.0,WNW,5.8,-,N/A,,Clear,290,2012-10-07 00:15:00
5:35 PM,60.8,5.0,11,30.15,10.0,WNW,6.9,-,N/A,,Clear,290,2012-10-07 00:35:00
5:55 PM,60.8,5.0,11,30.15,10.0,West,6.9,-,N/A,,Clear,280,2012-10-07 00:55:00
6:15 PM,59.0,8.6,14,30.15,10.0,West,8.1,-,N/A,,Clear,270,2012-10-07 01:15:00
6:35 PM,55.4,8.6,15,30.15,10.0,West,5.8,-,N/A,,Clear,260,2012-10-07 01:35:00
6:55 PM,55.4,8.6,15,30.16,10.0,WSW,5.8,-,N/A,,Clear,240,2012-10-07 01:55:00
7:15 PM,51.8,8.6,18,30.16,10.0,Calm,Calm,-,N/A,,Clear,0,2012-10-07 02:15:00
7:35 PM,53.6,8.6,16,30.16,10.0,WSW,3.5,-,N/A,,Clear,240,2012-10-07 02:35:00
7:55 PM,51.8,8.6,18,30.16,10.0,SW,5.8,-,N/A,,Clear,220,2012-10-07 02:55:00
9:15 PM,51.8,10.4,19,30.17,10.0,Calm,Calm,-,N/A,,Clear,0,2012-10-07 04:15:00
9:35 PM,46.4,10.4,23,30.17,10.0,East,4.6,-,N/A,,Clear,90,2012-10-07 04:35:00
9:55 PM,44.6,12.2,27,30.18,10.0,ESE,9.2,-,N/A,,Clear,120,2012-10-07 04:55:00
10:15 PM,46.4,10.4,23,30.18,10.0,ESE,5.8,-,N/A,,Clear,120,2012-10-07 05:15:00
10:35 PM,46.4,10.4,23,30.19,10.0,ESE,4.6,-,N/A,,Clear,110,2012-10-07 05:35:00
10:55 PM,42.8,12.2,29,30.19,10.0,SE,3.5,-,N/A,,Clear,130,2012-10-07 05:55:00
11:15 PM,42.8,10.4,27,30.19,10.0,ESE,4.6,-,N/A,,Clear,110,2012-10-07 06:15:00
11:35 PM,39.2,12.2,33,30.19,10.0,ESE,5.8,-,N/A,,Clear,120,2012-10-07 06:35:00
11:55 PM,41.0,10.4,29,30.19,10.0,ESE,5.8,-,N/A,,Clear,120,2012-10-07 06:55:00